STARLINK-31248, 58840

Orbit data source: Space-Track

STARLINK-31248, 58840 is a payload satellite owned by SpaceX/Seattle (US) in LEO that was launched on Wed, 24 Jan 2024 UTC via an FALCON 9 launch vehicle from the Air Force Western Test Range (AFWTR). Payload-class satellites include a variety of spacecraft equipped with specific instruments for various scientific and technological missions. These include communications satellites like Starlink; space stations such as the ISS; scientific satellites like the Hubble; Earth observation satellites from companies like Planet Labs, Umbra, and HawkEye 360; GPS; miniature CubeSats for education and research; and military/defense satellites.

Loading next visibility...
Identifier
58840, 2024-017Q
Orbit
LEO
Country
Flag of USUS
Related business
Manufacturer
SpaceX/Seattle
Mission
Operational Commercial Communications
Bus & Motor
STARLINK V2M, Unknown motor
Mass
730 kg wet, ~700 kg dry
Launch date (UTC)
2024-01-24 (2 years ago)
Launch vehicle
FALCON 9
Launch site
Air Force Western Test Range (AFWTR)
Object type
Payload
Rocket body
Debris
Shape & HBR
Box + 2 Pan, 17.7 m
Radar Cross Section
33.884 m², Large (>1 m²)

Expand to show TLE details & history
Last TLE update: 3 days ago

TLE from 3 days ago
0 STARLINK-31248
1 58840U 24017Q   26170.52887706  .00000166  00000-0  16040-4 0  9996
2 58840  53.1590 102.2468 0001227  87.7652 272.3491 15.34391958135601
Epoch: 2026-06-19T12:41Z
TLE epoch observation values (Epoch: 2026-06-19T12:41:34.977Z)
Latitude
-0.00005°
Longitude
4.09447°
Altitude
463.594 km
Speed
7.636 km/s
True Right ascension
06h 48m 59s
True Declination
0° 00' 00"
Sunlit
Object was in daylight at epoch
Visualization orbit readout
Latitude
Unknown
Longitude
Unknown
Altitude
Unknown
Speed
Unknown
Apparent Right ascension
Unknown
Apparent Declination
Unknown
Sunlit
N/A
Visualization observer readout
Local Sidereal Time
21:25:30
Azimuth
Unknown
Elevation
Unknown
Doppler factor
Unknown
Orbital elements
Apogee altitude
463.824 km
Perigee altitude
462.145 km
Semi-major axis
6,841.121 km
Eccentricity
0.00012
Inclination
53.159°
RAAN
102.2468°
Arg. of periapsis
87.7652°
True anomaly
272.33505°
Mean anomaly
272.3491°
Eccentric anomaly
272.34208°
Mean motion
3.83577 °/min
Orbital period
93.85 mins
BSTAR
0.00001604
Loading maneuver chart data...
Computing Atmospheric mass density...
Loading historical data...
Loading historical data...
Loading historical data...
Loading historical data...
Loading historical data...
Loading historical data...
Loading historical data...

Documentation

Showing up to 5 results
|